FW8918 Weather Reports


time (UTC)temp
C
wind
direction
speed
KPH
gust
KPH
rain 1hr
cm
rain 24hr
cm
rain mn
cm
humidity
%
barometer
mb
20260505200030 7 0 1.6 11.3 0.00 0.00 0.00 82 1013.1
20260505194536 7 65 1.6 8.0 0.00 0.00 0.00 82 1012.9
20260505193106 7 53 1.6 9.7 0.00 0.00 0.00 80 1013.0
20260505191530 8 1 1.6 9.7 0.00 0.00 0.00 79 1012.8
20260505190035 8 38 1.6 8.0 0.00 0.00 0.00 77 1012.8
20260505184533 9 24 1.6 8.0 0.00 0.00 0.00 75 1012.7
20260505183028 10 327 1.6 11.3 0.00 0.00 0.00 73 1012.6
20260505181531 10 21 4.8 11.3 0.00 0.00 0.00 71 1012.7
20260505180038 11 352 3.2 11.3 0.00 0.00 0.00 71 1012.6
20260505174531 11 359 3.2 11.3 0.00 0.00 0.00 68 1012.4
20260505173029 11 35 3.2 14.5 0.00 0.00 0.00 68 1012.5
20260505171529 11 223 3.2 12.9 0.00 0.00 0.00 67 1012.5
20260505170028 11 53 3.2 16.1 0.00 0.00 0.00 67 1012.7
20260505164529 12 341 4.8 12.9 0.00 0.00 0.00 67 1012.6
20260505163028 12 340 4.8 14.5 0.00 0.00 0.00 66 1012.6
20260505161529 12 335 4.8 14.5 0.00 0.00 0.00 63 1012.5
20260505153027 12 294 4.8 14.5 0.00 0.00 0.00 61 1012.8
20260505151534 13 252 4.8 17.7 0.00 0.00 0.00 61 1012.7
20260505124540 13 331 4.8 14.5 0.00 0.00 0.00 65 1013.0
20260505123030 12 315 4.8 16.1 0.00 0.00 0.00 64 1013.0
20260505121554 12 0 3.2 12.9 0.00 0.00 0.00 66 1012.9
20260505120027 12 23 6.4 14.5 0.00 0.00 0.00 66 1012.9
20260505114533 13 232 6.4 14.5 0.00 0.00 0.00 65 1012.8
20260505113031 12 296 6.4 12.9 0.00 0.00 0.00 66 1012.9
20260505111536 12 44 4.8 14.5 0.00 0.00 0.00 66 1013.0
20260505101528 11 245 3.2 12.9 0.00 0.00 0.00 74 1013.1
20260505100036 11 281 4.8 9.7 0.00 0.00 0.00 71 1013.2
20260505094530 11 305 1.6 8.0 0.00 0.00 0.00 66 1013.1
20260505093031 11 19 1.6 9.7 0.00 0.00 0.00 69 1013.1
20260505091535 11 315 4.8 11.3 0.00 0.00 0.00 68 1013.2
20260505090028 11 277 3.2 8.0 0.00 0.00 0.00 73 1013.1
20260505084528 11 60 1.6 6.4 0.00 0.00 0.00 74 1013.3
20260505083041 10 261 1.6 11.3 0.00 0.00 0.00 76 1013.2
20260505081532 10 247 1.6 3.2 0.00 0.00 0.00 77 1013.3
20260505080043 10 292 0.0 9.7 0.00 0.00 0.00 76 1013.2
20260505074528 10 0 0.0 9.7 0.00 0.00 0.00 80 1013.3
20260505073031 10 257 1.6 6.4 0.00 0.00 0.00 81 1013.2
20260505071544 10 25 1.6 9.7 0.00 0.00 0.00 85 1013.3
20260505070031 8 351 1.6 8.0 0.00 0.00 0.00 89 1013.3
20260505064530 8 304 1.6 4.8 0.00 0.00 0.00 92 1013.4
20260505063042 7 26 3.2 9.7 0.00 0.00 0.00 93 1013.4
20260505061533 7 60 0.0 1.6 0.00 0.00 0.00 94 1013.4
20260505060027 7 0 0.0 0.0 0.00 0.00 0.00 94 1013.3
20260505054541 7 0 0.0 0.0 0.00 0.00 0.00 95 1013.3
20260505053030 6 0 0.0 0.0 0.00 0.00 0.00 95 1013.3
20260505051538 6 0 0.0 0.0 0.00 0.00 0.00 95 1013.2
20260505041543 3 0 0.0 0.0 0.00 0.00 0.00 93 1013.1
20260505040036 3 0 0.0 0.0 0.00 0.00 0.00 93 1013.1
20260505034530 4 0 0.0 0.0 0.00 0.00 0.00 93 1013.1
20260505033032 4 0 0.0 0.0 0.00 0.00 0.00 93 1013.2
20260505031532 4 0 0.0 0.0 0.00 0.00 0.00 92 1013.2
20260505030028 5 0 0.0 0.0 0.00 0.00 0.00 93 1013.3
20260505024529 5 316 0.0 1.6 0.00 0.00 0.00 93 1013.3
20260505023031 5 291 0.0 3.2 0.00 0.00 0.00 93 1013.4
20260505021531 5 0 0.0 0.0 0.00 0.00 0.00 92 1013.6
20260505020045 5 0 0.0 0.0 0.00 0.00 0.00 92 1013.5
20260505014531 5 0 0.0 0.0 0.00 0.00 0.00 92 1013.7
20260505013028 5 0 0.0 1.6 0.00 0.00 0.00 92 1013.8
20260505011533 5 0 0.0 1.6 0.00 0.00 0.00 92 1013.9
20260505010032 5 0 0.0 1.6 0.00 0.00 0.00 92 1013.9
20260505004531 5 0 0.0 1.6 0.00 0.00 0.00 92 1014.1
20260505003031 5 0 0.0 1.6 0.00 0.00 0.00 92 1014.1
20260505001533 5 0 0.0 0.0 0.00 0.00 0.00 91 1014.3
20260505000037 5 0 0.0 3.2 0.00 0.00 0.00 92 1014.3
20260504234528 5 0 0.0 0.0 0.00 0.05 0.00 92 1014.2
20260504233028 5 0 0.0 0.0 0.00 0.05 0.00 92 1014.1
20260504231533 5 0 0.0 0.0 0.00 0.05 0.00 91 1014.2
20260504230031 5 0 0.0 0.0 0.00 0.05 0.00 91 1014.1
20260504224532 5 0 0.0 0.0 0.00 0.08 0.00 91 1014.2
20260504223031 5 0 0.0 0.0 0.00 0.08 0.00 91 1014.2
20260504221528 5 0 0.0 0.0 0.00 0.08 0.00 91 1014.3
20260504220028 5 0 0.0 0.0 0.00 0.08 0.00 91 1014.2
20260504214539 5 0 0.0 0.0 0.00 0.15 0.08 90 1014.3
20260504213030 5 0 0.0 0.0 0.00 0.15 0.08 90 1014.4
20260504211530 5 0 0.0 0.0 0.00 0.15 0.08 89 1014.3
20260504210030 6 0 0.0 0.0 0.00 0.15 0.08 89 1014.5
20260504204529 6 0 0.0 0.0 0.00 0.28 0.08 88 1014.5
20260504203034 6 0 0.0 0.0 0.00 0.28 0.08 88 1014.5
20260504201529 6 0 0.0 1.6 0.00 0.28 0.08 87 1014.6